| time (UTC) | temp F | wind direction | speed knots | gust knots | rain 1hr in | rain 24hr in | rain mn in | humidity % | barometer mb |
| 20260904211604 | 75 | 315 | 0.0 | 0.0 | 0.00 | 4.19 | 0.00 | 61 | 1015.6 |
| 20260904210106 | 76 | 315 | 0.0 | 0.0 | 0.00 | 4.41 | 0.00 | 60 | 1015.6 |
| 20260904204605 | 76 | 315 | 0.0 | 0.0 | 0.00 | 4.42 | 4.41 | 56 | 1015.6 |
| 20260904204105 | 77 | 315 | 0.0 | 0.0 | 0.00 | 4.42 | 4.41 | 57 | 1015.5 |
| 20260904201605 | 78 | 315 | 0.0 | 0.0 | 0.00 | 4.64 | 4.41 | 56 | 1015.5 |
| 20260904200106 | 79 | 315 | 0.0 | 0.0 | 0.00 | 4.91 | 4.41 | 56 | 1015.4 |
| 20260904194605 | 80 | 315 | 0.0 | 0.0 | 0.00 | 5.19 | 4.41 | 56 | 1015.4 |
| 20260904193605 | 80 | 315 | 0.0 | 0.0 | 0.00 | 5.38 | 4.41 | 56 | 1015.4 |
| 20260904191105 | 81 | 315 | 0.0 | 0.0 | 0.00 | 5.83 | 4.41 | 54 | 1015.2 |
| 20260904190605 | 81 | 315 | 0.0 | 0.0 | 0.00 | 5.92 | 4.41 | 54 | 1015.2 |
| 20260904184605 | 83 | 313 | 0.0 | 0.0 | 0.00 | 6.27 | 4.41 | 52 | 1015.0 |
| 20260904180605 | 85 | 313 | 0.0 | 0.0 | 0.00 | 6.55 | 4.41 | 49 | 1014.3 |
| 20260904180106 | 85 | 312 | 0.0 | 0.0 | 0.00 | 6.55 | 4.41 | 48 | 1014.3 |
| 20260904174605 | 86 | 313 | 0.0 | 0.0 | 0.00 | 6.55 | 4.41 | 47 | 1014.1 |
| 20260904174104 | 86 | 313 | 0.0 | 0.0 | 0.00 | 6.55 | 4.41 | 46 | 1014.1 |
| 20260904173105 | 87 | 313 | 0.0 | 0.0 | 0.00 | 6.55 | 4.41 | 46 | 1014.1 |
| 20260904171604 | 88 | 313 | 0.0 | 0.0 | 0.00 | 6.55 | 4.41 | 45 | 1013.9 |
| 20260904170106 | 89 | 313 | 0.0 | 0.0 | 0.00 | 6.55 | 4.41 | 44 | 1013.3 |
| 20260904164105 | 90 | 312 | 0.0 | 0.0 | 0.00 | 6.55 | 4.41 | 42 | 1013.3 |
| 20260904163604 | 91 | 312 | 0.0 | 0.0 | 0.00 | 6.55 | 4.41 | 42 | 1013.3 |
| 20260904160605 | 93 | 311 | 0.0 | 0.0 | 0.00 | 6.55 | 4.41 | 37 | 1013.3 |
| 20260904160106 | 93 | 303 | 0.0 | 0.0 | 0.00 | 6.55 | 4.41 | 37 | 1013.3 |
| 20260904154105 | 93 | 328 | 0.0 | 0.0 | 0.00 | 6.55 | 4.41 | 33 | 1013.3 |
| 20260904153605 | 94 | 324 | 0.0 | 0.0 | 0.00 | 6.55 | 4.41 | 33 | 1013.2 |
| 20260904150604 | 93 | 0 | 0.0 | 0.0 | 0.00 | 6.55 | 4.41 | 37 | 1013.1 |
| 20260904150105 | 93 | 0 | 0.0 | 0.0 | 0.00 | 6.55 | 4.41 | 38 | 1013.3 |
| 20260904144105 | 92 | 0 | 0.0 | 0.0 | 0.00 | 6.55 | 4.41 | 38 | 1013.3 |
| 20260904141605 | 90 | 0 | 0.0 | 0.0 | 0.00 | 6.55 | 4.41 | 44 | 1013.5 |
| 20260904141105 | 90 | 229 | 0.0 | 0.0 | 0.00 | 6.55 | 4.41 | 43 | 1013.5 |
| 20260904134604 | 90 | 253 | 0.0 | 0.0 | 0.00 | 6.55 | 4.41 | 44 | 1013.6 |
| 20260904134105 | 90 | 0 | 0.0 | 0.0 | 0.00 | 6.55 | 4.41 | 47 | 1013.7 |
| 20260904133605 | 90 | 0 | 0.0 | 0.0 | 0.00 | 6.55 | 4.41 | 47 | 1013.7 |
| 20260904133105 | 91 | 0 | 0.0 | 0.0 | 0.00 | 6.55 | 4.41 | 45 | 1013.7 |
| 20260904131604 | 91 | 0 | 0.0 | 0.0 | 0.00 | 6.55 | 4.41 | 42 | 1013.7 |
| 20260904131105 | 91 | 0 | 0.0 | 0.0 | 0.00 | 6.55 | 4.41 | 40 | 1013.7 |
| 20260904130106 | 91 | 0 | 0.0 | 0.0 | 0.00 | 6.55 | 4.41 | 43 | 1013.9 |
| 20260904123605 | 91 | 336 | 0.0 | 0.0 | 0.00 | 6.55 | 4.41 | 40 | 1014.4 |
| 20260904121105 | 91 | 349 | 0.0 | 0.0 | 0.00 | 6.55 | 4.41 | 39 | 1014.4 |
| 20260904120604 | 91 | 353 | 0.0 | 0.0 | 0.00 | 6.55 | 4.41 | 40 | 1014.4 |
| 20260904114105 | 91 | 302 | 0.0 | 0.0 | 0.00 | 6.55 | 4.41 | 38 | 1014.6 |
| 20260904113605 | 91 | 296 | 0.0 | 0.0 | 0.00 | 6.55 | 4.41 | 42 | 1015.0 |
| 20260904110605 | 89 | 0 | 0.0 | 0.0 | 0.00 | 6.55 | 4.41 | 45 | 1015.0 |
| 20260904110106 | 89 | 354 | 0.0 | 0.0 | 0.30 | 6.55 | 4.41 | 46 | 1015.0 |
| 20260904100605 | 88 | 350 | 0.0 | 0.0 | 0.40 | 6.55 | 4.41 | 43 | 1015.7 |
| 20260904094104 | 87 | 322 | 0.0 | 0.0 | 0.01 | 6.51 | 4.37 | 44 | 1015.7 |
| 20260904090604 | 86 | 0 | 0.0 | 0.0 | 0.00 | 6.51 | 4.37 | 45 | 1015.8 |
| 20260904084604 | 85 | 45 | 0.0 | 0.0 | 1.61 | 6.51 | 4.37 | 47 | 1015.8 |
| 20260904084105 | 85 | 0 | 0.0 | 0.0 | 1.61 | 6.51 | 4.37 | 48 | 1015.8 |
| 20260904083104 | 85 | 353 | 0.0 | 0.0 | 1.61 | 6.51 | 4.37 | 49 | 1015.4 |
| 20260904081604 | 83 | 348 | 0.0 | 0.0 | 1.61 | 6.51 | 4.37 | 51 | 1015.4 |
| 20260904081105 | 83 | 335 | 0.0 | 0.0 | 1.61 | 6.51 | 4.37 | 52 | 1015.4 |
| 20260904080106 | 82 | 128 | 0.0 | 0.0 | 1.61 | 6.51 | 4.37 | 62 | 1015.4 |
| 20260904074604 | 80 | 1 | 0.0 | 0.0 | 0.00 | 6.35 | 4.21 | 67 | 1015.4 |
| 20260904073604 | 79 | 0 | 0.0 | 0.0 | 0.00 | 6.35 | 4.21 | 70 | 1015.4 |
| 20260904073105 | 78 | 1 | 0.0 | 0.0 | 0.00 | 6.35 | 4.21 | 71 | 1015.4 |
| 20260904070604 | 77 | 146 | 0.0 | 0.0 | 0.00 | 6.35 | 4.21 | 72 | 1015.4 |
| 20260904064605 | 77 | 103 | 0.0 | 0.0 | 0.07 | 6.35 | 4.21 | 70 | 1015.2 |
| 20260904064105 | 78 | 27 | 0.0 | 0.0 | 0.07 | 6.35 | 4.21 | 71 | 1015.2 |
| 20260904063105 | 78 | 304 | 0.0 | 0.0 | 0.07 | 6.35 | 4.21 | 69 | 1015.1 |
| 20260904061604 | 76 | 35 | 0.0 | 0.0 | 0.08 | 6.35 | 4.21 | 62 | 1015.1 |
| 20260904060106 | 74 | 39 | 0.0 | 0.0 | 2.17 | 6.35 | 4.21 | 67 | 1015.1 |
| 20260904054104 | 72 | 32 | 0.0 | 0.0 | 5.74 | 6.34 | 4.20 | 75 | 1014.8 |
| 20260904053604 | 71 | 29 | 0.0 | 0.0 | 6.68 | 6.34 | 4.20 | 78 | 1014.8 |
| 20260904053104 | 70 | 21 | 0.0 | 1.7 | 7.31 | 6.34 | 4.20 | 81 | 1014.8 |
| 20260904051604 | 69 | 30 | 0.0 | 0.0 | 7.31 | 6.34 | 4.20 | 86 | 1014.8 |
| 20260904050604 | 69 | 30 | 0.0 | 0.0 | 6.16 | 6.22 | 4.08 | 86 | 1014.8 |
| 20260904050105 | 68 | 31 | 0.0 | 0.0 | 5.90 | 6.13 | 3.99 | 86 | 1014.8 |
| 20260904044604 | 68 | 33 | 0.0 | 0.0 | 5.88 | 5.85 | 3.71 | 85 | 1014.6 |
| 20260904043605 | 68 | 32 | 0.0 | 0.0 | 5.92 | 5.67 | 3.53 | 85 | 1014.6 |
| 20260904043105 | 68 | 32 | 0.0 | 0.0 | 5.54 | 5.61 | 3.47 | 85 | 1014.6 |
| 20260904041604 | 69 | 32 | 0.0 | 0.0 | 5.81 | 5.61 | 3.47 | 86 | 1014.6 |
| 20260904040605 | 69 | 30 | 0.0 | 0.0 | 6.32 | 5.61 | 3.47 | 86 | 1014.6 |
| 20260904040106 | 69 | 32 | 0.0 | 0.0 | 5.64 | 5.54 | 3.40 | 86 | 1014.3 |
| 20260904034104 | 70 | 30 | 0.0 | 0.0 | 2.69 | 5.17 | 3.03 | 86 | 1014.3 |
| 20260904033105 | 70 | 30 | 0.0 | 0.0 | 1.49 | 5.05 | 2.91 | 87 | 1014.3 |
| 20260904031605 | 70 | 27 | 0.0 | 0.0 | 1.22 | 5.03 | 2.89 | 87 | 1014.1 |
| 20260904031104 | 70 | 27 | 0.0 | 0.0 | 0.72 | 4.98 | 2.84 | 87 | 1014.1 |
| 20260904030605 | 70 | 27 | 0.0 | 0.0 | 0.71 | 4.98 | 2.83 | 87 | 1014.1 |
| 20260904030106 | 70 | 27 | 0.0 | 0.0 | 0.71 | 4.98 | 2.83 | 87 | 1014.1 |
| 20260904023605 | 70 | 27 | 0.0 | 0.0 | 0.00 | 4.90 | 2.76 | 86 | 1014.1 |
| 20260904023104 | 70 | 27 | 0.0 | 0.0 | 0.00 | 4.90 | 2.76 | 86 | 1014.1 |
| 20260904021604 | 70 | 26 | 0.0 | 0.0 | 0.15 | 4.90 | 2.76 | 86 | 1014.0 |
| 20260904021105 | 69 | 26 | 0.0 | 0.0 | 0.32 | 4.90 | 2.76 | 86 | 1014.0 |
| 20260904020105 | 69 | 26 | 0.0 | 0.0 | 0.66 | 4.90 | 2.76 | 85 | 1014.0 |
| 20260904014604 | 69 | 26 | 0.0 | 0.0 | 0.66 | 4.90 | 2.76 | 85 | 1014.0 |
| 20260904013605 | 69 | 27 | 0.0 | 0.0 | 0.66 | 4.90 | 2.76 | 85 | 1014.0 |
| 20260904004105 | 69 | 26 | 0.0 | 0.0 | 0.00 | 4.84 | 2.70 | 86 | 1013.6 |
| 20260904001604 | 69 | 27 | 0.0 | 0.0 | 4.15 | 4.84 | 2.70 | 85 | 1013.6 |
| 20260903233605 | 70 | 27 | 0.0 | 0.0 | 9.99 | 4.79 | 2.65 | 86 | 1013.8 |
| 20260903231604 | 69 | 27 | 0.0 | 0.0 | 9.99 | 4.42 | 2.28 | 86 | 1014.1 |
| 20260903224104 | 69 | 29 | 0.0 | 0.0 | 9.99 | 3.78 | 1.64 | 87 | 1014.2 |
| 20260903223605 | 69 | 28 | 0.0 | 0.0 | 9.99 | 3.69 | 1.55 | 87 | 1014.5 |
| 20260903223104 | 69 | 27 | 0.0 | 0.0 | 9.99 | 3.60 | 1.46 | 87 | 1014.5 |
| 20260903220604 | 70 | 28 | 0.0 | 0.0 | 9.99 | 3.21 | 1.06 | 88 | 1014.2 |
| 20260903220105 | 70 | 26 | 0.0 | 0.0 | 9.89 | 3.13 | 9.89 | 88 | 1014.2 |
| 20260903214104 | 70 | 28 | 0.0 | 0.0 | 6.31 | 2.76 | 6.20 | 88 | 1013.8 |
| 20260903213604 | 70 | 26 | 0.0 | 0.0 | 5.36 | 2.66 | 5.26 | 88 | 1013.8 |
| 20260903213104 | 70 | 24 | 0.0 | 0.0 | 4.42 | 2.57 | 4.31 | 88 | 1013.8 |